Satellite: MET-3/5
Catalog number: 21655
Epoch time: 12039.92726928
Element set: 0333
Inclination: 082.5519 deg
RA of node: 243.4981 deg
Eccentricity: 0.0012490
Arg of perigee: 287.7876 deg
Mean anomaly: 072.1899 deg
Mean motion: 13.17033694 rev/day
Decay rate: 5.1e-07 rev/day^2
Epoch rev: 98488
Checksum: 345
Satellite: MET-2/21
Catalog number: 22782
Epoch time: 12040.36909801
Element set: 333
Inclination: 082.5507 deg
RA of node: 134.7225 deg
Eccentricity: 0.0023321
Arg of perigee: 150.6479 deg
Mean anomaly: 209.5998 deg
Mean motion: 13.83677117 rev/day
Decay rate: 4.0e-08 rev/day^2
Epoch rev: 93135
Checksum: 295
Satellite: OKEAN-4
Catalog number: 23317
Epoch time: 12039.94895332
Element set: 0838
Inclination: 082.5418 deg
RA of node: 151.9982 deg
Eccentricity: 0.0023079
Arg of perigee: 060.2460 deg
Mean anomaly: 300.1047 deg
Mean motion: 14.83574154 rev/day
Decay rate: 7.74e-06 rev/day^2
Epoch rev: 93564
Checksum: 311
Satellite: NOAA-14
Catalog number: 23455
Epoch time: 12039.96909293
Element set: 0801
Inclination: 098.8337 deg
RA of node: 125.0677 deg
Eccentricity: 0.0009080
Arg of perigee: 332.4367 deg
Mean anomaly: 027.6323 deg
Mean motion: 14.13875330 rev/day
Decay rate: 3.4e-07 rev/day^2
Epoch rev: 88253
Checksum: 308
Satellite: NOAA-15
Catalog number: 25338
Epoch time: 12039.58476756
Element set: 0134
Inclination: 098.6789 deg
RA of node: 027.7903 deg
Eccentricity: 0.0011394
Arg of perigee: 122.6752 deg
Mean anomaly: 237.5527 deg
Mean motion: 14.25027177 rev/day
Decay rate: -1.1e-07 rev/day^2
Epoch rev: 71439
Checksum: 321
Satellite: RESURS
Catalog number: 25394
Epoch time: 12040.91255318
Element set: 10
Inclination: 098.3106 deg
RA of node: 035.9623 deg
Eccentricity: 0.0000498
Arg of perigee: 272.6512 deg
Mean anomaly: 087.4616 deg
Mean motion: 14.24272763 rev/day
Decay rate: 3.2e-07 rev/day^2
Epoch rev: 70614
Checksum: 269
Satellite: FENGYUN1
Catalog number: 25730
Epoch time: 12039.93893644
Element set: 0551
Inclination: 098.8366 deg
RA of node: 001.2522 deg
Eccentricity: 0.0021276
Arg of perigee: 014.0020 deg
Mean anomaly: 346.1734 deg
Mean motion: 14.09219036 rev/day
Decay rate: 1.241e-05 rev/day^2
Epoch rev: 65640
Checksum: 267
Satellite: OKEAN-0
Catalog number: 25860
Epoch time: 12040.90552462
Element set: 542
Inclination: 097.9178 deg
RA of node: 006.3086 deg
Eccentricity: 0.0000859
Arg of perigee: 034.1073 deg
Mean anomaly: 326.0187 deg
Mean motion: 14.74079501 rev/day
Decay rate: 3.70e-06 rev/day^2
Epoch rev: 67567
Checksum: 292
Satellite: NOAA-16
Catalog number: 26536
Epoch time: 12039.57038148
Element set: 0618
Inclination: 099.1131 deg
RA of node: 079.5888 deg
Eccentricity: 0.0011280
Arg of perigee: 089.3620 deg
Mean anomaly: 270.8839 deg
Mean motion: 14.12704184 rev/day
Decay rate: 1.45e-06 rev/day^2
Epoch rev: 58673
Checksum: 322
Satellite: NOAA-17
Catalog number: 27453
Epoch time: 12039.70282574
Element set: 0591
Inclination: 098.3527 deg
RA of node: 073.1974 deg
Eccentricity: 0.0011921
Arg of perigee: 171.8439 deg
Mean anomaly: 188.2923 deg
Mean motion: 14.24391387 rev/day
Decay rate: 1.45e-06 rev/day^2
Epoch rev: 50032
Checksum: 311
Satellite: NOAA-18
Catalog number: 28654
Epoch time: 12039.78202172
Element set: 0068
Inclination: 099.0300 deg
RA of node: 356.9074 deg
Eccentricity: 0.0014585
Arg of perigee: 156.2532 deg
Mean anomaly: 203.9314 deg
Mean motion: 14.11603612 rev/day
Decay rate: 4.50e-06 rev/day^2
Epoch rev: 34630
Checksum: 276
Satellite: NOAA-19
Catalog number: 33591
Epoch time: 12039.76092142
Element set: 0256
Inclination: 098.8528 deg
RA of node: 341.2349 deg
Eccentricity: 0.0014608
Arg of perigee: 029.9831 deg
Mean anomaly: 330.2198 deg
Mean motion: 14.11289824 rev/day
Decay rate: 1.34e-06 rev/day^2
Epoch rev: 15475
Checksum: 313
/EX
SB KEPS @ AMSAT $ORB12040.M
Orbital Elements 12040.MISC
HR AMSAT ORBITAL ELEMENTS FOR MANNED AND MISCELLANEOUS SATELLITES
FROM WA5QGD FORT WORTH,TX February 9, 2012
Send SUBSCRIBE KEPS/UNSUBSCRIBE KEPS to majordomo at amsat.org only
BID: ORB12040.M
TO ALL RADIO AMATEURS BT
Satellite: HUBBLE
Catalog number: 20580
Epoch time: 12039.98254251
Element set: 940
Inclination: 028.4702 deg
RA of node: 268.8502 deg
Eccentricity: 0.0003398
Arg of perigee: 124.3941 deg
Mean anomaly: 235.6882 deg
Mean motion: 15.02169671 rev/day
Decay rate: 1.145e-05 rev/day^2
Epoch rev: 99528
Checksum: 304
Satellite: ISS
Catalog number: 25544
Epoch time: 12040.76880787
Element set: 978
Inclination: 051.6420 deg
RA of node: 046.1921 deg
Eccentricity: 0.0020281
Arg of perigee: 025.8807 deg
Mean anomaly: 332.5641 deg
Mean motion: 15.58787466 rev/day
Decay rate: 1.0337e-04 rev/day^2
Epoch rev: 75798
Checksum: 324
Satellite: CO-58
Catalog number: 28895
Epoch time: 12040.63079737
Element set: 94
Inclination: 097.9334 deg
RA of node: 272.4216 deg
Eccentricity: 0.0017499
Arg of perigee: 192.1318 deg
Mean anomaly: 167.9471 deg
Mean motion: 14.60475585 rev/day
Decay rate: 3.24e-06 rev/day^2
Epoch rev: 33489
Checksum: 347
Satellite: FALCON
Catalog number: 30776
Epoch time: 12039.93980681
Element set: 0279
Inclination: 035.4343 deg
RA of node: 345.6840 deg
Eccentricity: 0.0003238
Arg of perigee: 320.1638 deg
Mean anomaly: 039.8842 deg
Mean motion: 15.06574739 rev/day
Decay rate: 3.351e-05 rev/day^2
Epoch rev: 27074
Checksum: 312
Satellite: MAST
Catalog number: 31126
Epoch time: 12040.54424121
Element set: 379
Inclination: 097.8805 deg
RA of node: 059.1508 deg
Eccentricity: 0.0094506
Arg of perigee: 151.0513 deg
Mean anomaly: 209.5965 deg
Mean motion: 14.54028005 rev/day
Decay rate: 3.38e-06 rev/day^2
Epoch rev: 25557
Checksum: 279
Satellite: CAPE1
Catalog number: 31130
Epoch time: 12040.67694457
Element set: 391
Inclination: 097.8887 deg
RA of node: 055.7501 deg
Eccentricity: 0.0102111
Arg of perigee: 162.7559 deg
Mean anomaly: 197.7154 deg
Mean motion: 14.52762755 rev/day
Decay rate: 4.64e-06 rev/day^2
Epoch rev: 25511
Checksum: 303
Satellite: COMPASS
Catalog number: 32787
Epoch time: 12039.78988501
Element set: 0219
Inclination: 097.8176 deg
RA of node: 103.9363 deg
Eccentricity: 0.0016463
Arg of perigee: 122.1492 deg
Mean anomaly: 238.1328 deg
Mean motion: 14.83486707 rev/day
Decay rate: 1.063e-05 rev/day^2
Epoch rev: 20462
Checksum: 311
Satellite: AAUSAT2
Catalog number: 32788
Epoch time: 12040.59494043
Element set: 210
Inclination: 097.8215 deg
RA of node: 105.0410 deg
Eccentricity: 0.0016350
Arg of perigee: 120.2706 deg
Mean anomaly: 240.0130 deg
Mean motion: 14.83767654 rev/day
Decay rate: 1.354e-05 rev/day^2
Epoch rev: 20476
Checksum: 255
Satellite: DO-64
Catalog number: 32789
Epoch time: 12040.68851948
Element set: 225
Inclination: 097.8303 deg
RA of node: 106.7096 deg
Eccentricity: 0.0015988
Arg of perigee: 117.7025 deg
Mean anomaly: 242.5801 deg
Mean motion: 14.84909300 rev/day
Decay rate: 2.932e-05 rev/day^2
Epoch rev: 20480
Checksum: 316
Satellite: CO-66
Catalog number: 32791
Epoch time: 12040.67728373
Element set: 212
Inclination: 097.8183 deg
RA of node: 104.6394 deg
Eccentricity: 0.0016755
Arg of perigee: 118.2785 deg
Mean anomaly: 242.0142 deg
Mean motion: 14.83000392 rev/day
Decay rate: 1.394e-05 rev/day^2
Epoch rev: 20469
Checksum: 300
Satellite: RS-30
Catalog number: 32953
Epoch time: 12040.91102933
Element set: 507
Inclination: 082.5019 deg
RA of node: 014.8995 deg
Eccentricity: 0.0017518
Arg of perigee: 226.3727 deg
Mean anomaly: 133.5904 deg
Mean motion: 12.43020780 rev/day
Decay rate: 1.0e-07 rev/day^2
Epoch rev: 16862
Checksum: 271
Satellite: TACSAT-3
Catalog number: 35001
Epoch time: 12039.71592599
Element set: 0870
Inclination: 040.4474 deg
RA of node: 158.7091 deg
Eccentricity: 0.0005624
Arg of perigee: 058.2516 deg
Mean anomaly: 301.8857 deg
Mean motion: 15.72506809 rev/day
Decay rate: 8.3376e-04 rev/day^2
Epoch rev: 15396
Checksum: 321
Satellite: PHARMSAT
Catalog number: 35002
Epoch time: 12039.75434883
Element set: 789
Inclination: 040.4659 deg
RA of node: 162.2210 deg
Eccentricity: 0.0005556
Arg of perigee: 202.3045 deg
Mean anomaly: 157.7539 deg
Mean motion: 15.64463591 rev/day
Decay rate: 4.2085e-04 rev/day^2
Epoch rev: 15393
Checksum: 298
Satellite: METEOR-M
Catalog number: 35865
Epoch time: 12040.72359953
Element set: 136
Inclination: 098.6732 deg
RA of node: 097.3551 deg
Eccentricity: 0.0003290
Arg of perigee: 069.1287 deg
Mean anomaly: 291.0235 deg
Mean motion: 14.21855089 rev/day
Decay rate: -2.0e-07 rev/day^2
Epoch rev: 12434
Checksum: 292
Satellite: RS-38
Catalog number: 35869
Epoch time: 12040.83354548
Element set: 136
Inclination: 098.6701 deg
RA of node: 097.4781 deg
Eccentricity: 0.0005400
Arg of perigee: 067.6605 deg
Mean anomaly: 292.5144 deg
Mean motion: 14.22053343 rev/day
Decay rate: 4.0e-08 rev/day^2
Epoch rev: 12437
Checksum: 292
Satellite: JUGNU
Catalog number: 37839
Epoch time: 12038.43773030
Element set: 0083
Inclination: 019.9611 deg
RA of node: 070.3053 deg
Eccentricity: 0.0018603
Arg of perigee: 223.5355 deg
Mean anomaly: 136.3480 deg
Mean motion: 14.12022914 rev/day
Decay rate: 6.20e-06 rev/day^2
Epoch rev: 01674
Checksum: 256
Satellite: SRMSAT
Catalog number: 37841
Epoch time: 12039.44684889
Element set: 0084
Inclination: 019.9735 deg
RA of node: 066.5213 deg
Eccentricity: 0.0012319
Arg of perigee: 206.7344 deg
Mean anomaly: 153.2461 deg
Mean motion: 14.10113459 rev/day
Decay rate: 2.64e-06 rev/day^2
Epoch rev: 01686
Checksum: 293
Satellite: RAX-2
Catalog number: 37853
Epoch time: 12039.94403546
Element set: 0109
Inclination: 101.7123 deg
RA of node: 021.4113 deg
Eccentricity: 0.0251381
Arg of perigee: 358.9570 deg
Mean anomaly: 001.1065 deg
Mean motion: 14.78763399 rev/day
Decay rate: 5.956e-05 rev/day^2
Epoch rev: 01529
Checksum: 293
